Theta_e
360 355 353 355 350 348 351 350 368 363 362 358 358 360 363 361 360 366 360 362 363 354
364 359 356 366 359 354 363 358 360 360 362 361 358 362 363 354 359 362 362 361 361 358
358 359 359 359 363 362 350 358 361 359 359 361 361 362 365 362 363 361 357 355 364 360
357 357 359 355 359 359 361 362 360 363 362 360 360 361 365 365 363 362 361 360 358 357
358 358 356 356 356 359 362 364 364 362 363 361 359 363 362 359 357 358 358 358 359 355
357 357 356 357 361 360 365 364 361 366 362 361 360 363 361 363 359 358 359 356 361 359
359 361 357 360 364 361 365 365 365 365 365 363 361 362 359 362 360 361 359 359 358 359
368 366 367 367 367 365 365 364 367 366 364 364 359 356 363 363 360 362 360 359 357 358
364 365 365 367 365 367 365 366 367 364 363 363 355 344 345 357 360 362 363 357 359 363
364 363 367 367 367 366 364 366 364 364 364 364 366 337 339 344 356 357 357 361 359 358
361 362 366 366 366 368 367 367 365 365 365 364 363 333 333 340 356 358 359 359 362 360
357 361 364 363 363 365 365 366 365 365 366 366 365 329 330 341 356 354 360 362 361 360
359 359 357 362 363 364 364 364 362 364 365 353 366 325 325 339 353 355 349 359 346 324
355 355 356 361 365 363 362 362 363 362 365 366 362 350 324 324 357 352 358 348 343 334
Wind_Speed
10 7 7 9 5 7 8 9 13 8 5 4 5 5 4 5 6 5 3 3 4 8
10 11 9 5 7 9 4 4 8 6 7 7 7 6 5 6 4 4 3 5 4 6
13 12 10 7 5 4 8 7 5 7 8 7 7 7 6 6 7 5 6 6 3 2
13 13 12 12 11 10 7 5 6 5 6 6 8 8 6 7 6 7 6 6 5 6
12 13 14 13 13 12 10 9 9 7 10 9 8 8 9 10 8 9 8 8 7 4
14 14 14 14 12 12 11 11 12 11 10 10 10 11 9 10 10 9 6 8 3 6
13 13 14 13 12 13 11 11 12 11 11 11 11 11 11 10 11 11 10 6 5 6
10 12 11 11 11 12 12 12 12 12 13 13 12 12 13 11 9 10 10 9 8 9
11 12 12 12 13 12 12 12 12 13 13 13 12 11 11 13 11 11 9 8 9 9
12 13 13 13 13 13 13 13 14 14 13 14 13 10 13 11 10 9 9 8 8 7
12 12 13 13 13 13 12 14 13 14 14 13 12 13 13 11 12 10 11 10 10 8
11 11 12 14 14 13 13 13 13 13 13 13 13 11 14 13 12 13 12 10 6 7
9 7 8 11 13 14 12 12 12 13 14 15 13 11 13 13 11 12 11 7 6 10
5 9 9 10 9 10 11 11 12 13 13 14 14 11 11 12 10 9 5 6 4 4
Wind_Direction
195 211 221 202 263 235 158 235 139 175 205 210 194 204 204 234 245 183 227 239 310 314
178 221 220 220 195 234 270 120 151 187 203 182 206 212 182 244 223 254 226 245 228 265
186 200 220 237 238 257 332 246 135 187 205 212 205 211 217 242 198 236 268 253 128 273
194 197 204 208 201 235 241 267 234 198 252 230 221 222 226 259 296 194 230 257 262 254
200 203 201 213 210 204 217 211 225 222 219 222 236 252 202 232 256 215 230 241 243 239
203 207 216 207 215 221 205 212 218 206 216 219 229 228 223 242 245 255 260 236 219 279
211 214 218 218 215 212 221 213 221 219 212 223 229 228 235 218 221 243 242 230 213 227
219 217 222 236 231 222 215 217 220 220 216 216 224 223 216 228 230 216 238 250 257 252
212 228 228 221 222 223 227 228 225 225 227 223 225 216 157 187 222 217 227 245 249 257
233 228 220 222 218 219 216 226 226 225 223 226 228 166 168 179 220 225 237 239 243 259
243 232 234 223 226 224 222 213 219 227 221 225 224 181 177 177 222 224 234 244 255 230
244 241 237 224 228 230 225 218 213 222 222 221 229 183 178 178 222 231 231 236 271 256
252 282 265 254 236 234 231 237 233 215 218 215 223 175 176 195 225 231 233 116 122 59
269 260 257 263 256 246 237 235 236 232 220 221 215 185 206 202 221 249 132 156 166 103